Flag Weather past 2 weeks in Maracay, Venezuela

Now
72 °F

Partly sunny.


Feels Like: 65 °F
Forecast: 64 / 93 °F
Wind: No wind

Location: Maracay-B. A. Sucre

Current Time: Oct 31, 2014 at 6:52:19 AM

Latest Report: Oct 31, 2014 at 5:30 AM


Visibility: N/A

Pressure: 29.86 "Hg

Humidity: 100%

Dew point: 72 °F

Location of MaracayLocation

Historic Weather in Maracay — Graph

°F

Maracay temperature yesterday

Maximum temperature yesterday: 102 °F (at 3:30 PM)
Minimum temperature yesterday: 72 °F (at 4:30 AM)
Average temperature yesterday: 81 °F

Past Weeks' High & Low Weather Summary

 TemperatureHumidityPressure
High102 °F (Oct 30, 3:30 PM)100% (Oct 16, 5:30 AM)32.52 "Hg (Oct 16, 5:30 AM)
Low70 °F (Oct 21, 6:30 AM)40% (Oct 30, 3:30 PM)29.80 "Hg (Oct 30, 3:30 PM)
Average80 °F82%29.96 "Hg
* Reported Oct 16 5:30 AM — Oct 31 5:30 AM, Maracay, Weather by CustomWeather, © 2014

Note: Actual official high and low records may vary slightly from our data, if they occured in-between our weather recording intervals... More about our weather records

Advertising

Maracay weather history for previous 24 hours

 ConditionsComfort  
Time TempWeatherWind HumidityBarometerVisibility
5:30 AM
Oct 31
72 °FPartly sunny.No wind100%29.86 "HgN/A
1:30 AM72 °FPassing clouds.No wind100%29.86 "HgN/A
10:30 PM
Oct 30
75 °FPassing clouds.No wind100%29.89 "HgN/A
9:30 PM75 °FOvercast.No wind100%29.92 "HgN/A
8:30 PM77 °FOvercast.No wind94%29.89 "HgN/A
7:30 PM77 °FOvercast.No wind100%29.86 "HgN/A
6:30 PM79 °FPassing clouds.No wind89%29.83 "HgN/A
5:30 PM84 °FPassing clouds.6 mph70%29.83 "HgN/A
3:30 PM102 °FPartly sunny.6 mph40%29.80 "HgN/A
2:30 PM88 °FPartly sunny.6 mph62%29.83 "HgN/A
1:30 PM88 °FPartly sunny.5 mph62%29.86 "HgN/A
12:30 PM88 °FPassing clouds.3 mph59%29.89 "HgN/A
11:30 AM88 °FPassing clouds.111 mph62%29.92 "HgN/A
10:30 AM86 °FPassing clouds.6 mph66%29.95 "HgN/A
9:30 AM82 °FPassing clouds.3 mph70%29.95 "HgN/A
8:30 AM79 °FPassing clouds.2 mph79%29.95 "HgN/A
7:30 AM75 °FPassing clouds.2 mph89%29.95 "HgN/A
6:30 AM72 °FPassing clouds.2 mph100%29.92 "HgN/A
Weather by CustomWeather, © 2014

See weather overviewHow to use our weather pages